Albion, NE

7:50 AM CDT on April 23, 2017 (GMT -0500)
Albion Municipal

Weather History for KBVN - November, 2012

Change the Weather History Date:

Monday, November 12, 2012

  Actual Average (KOFK) Record (KOFK)
Temperature  
Mean Temperature 30 °F -  
Max Temperature 42 °F 45 °F 73 °F (1999)
Min Temperature 18 °F 24 °F -3 °F (1911)
Degree Days  
Heating Degree Days 35    
Moisture  
Dew Point 13 °F    
Average Humidity 58    
Maximum Humidity 83    
Minimum Humidity 28    
Precipitation  
Precipitation 0.00 in - - ()
Sea Level Pressure  
Sea Level Pressure 30.24 in    
Wind  
Wind Speed 8 mph (WNW)    
Max Wind Speed 22 mph    
Max Gust Speed 31 mph    
Visibility 10 miles    
Events      
Averages and records for this station are not official NWS values.
T = Trace of Precipitation, MM = Missing Value Source: NWS Daily Summary

Daily Weather History Graph

Daily Weather History Graph

Search for Another Location

Airport or City:

Trip Planner

Search our weather history database for the weather conditions in past years. The results will help you decide how hot, cold, wet, or windy it might be!

Date:

Astronomy

Nov. 12, 2012 Rise Set
Actual Time 7:18 AM CST 5:13 PM CST
Civil Twilight 6:48 AM CST 5:43 PM CST
Nautical Twilight 6:15 AM CST 6:17 PM CST
Astronomical Twilight 5:42 AM CST 6:49 PM CST
Moon 5:44 AM CST (11/12) 4:20 PM CST (11/12)
Length of Visible Light 10h 54m
Length of Day
9h 55m
Waning Crescent, 2% of the Moon is Illuminated
Nov 12
Waning Crescent
Nov 13
New
Nov 20
First Quarter
Nov 28
Full
Dec 6
Last Quarter

Hourly Weather History & Observations

Time (CST) Temp. Windchill Dew Point Humidity Pressure Visibility Wind Dir Wind Speed Gust Speed Precip Events Conditions
12:15 AM 21.4 °F 15.1 °F 11.5 °F 66% 30.16 in 10.0 mi West 4.6 mph - N/A   Clear
12:35 AM 21.0 °F 16.2 °F 11.8 °F 68% 30.16 in 10.0 mi WSW 3.5 mph - N/A   Clear
12:55 AM 19.2 °F 14.1 °F 11.3 °F 71% 30.17 in 10.0 mi West 3.5 mph - N/A   Clear
1:15 AM 20.3 °F 10.6 °F 11.7 °F 69% 30.17 in 10.0 mi WNW 8.1 mph - N/A   Clear
1:35 AM 20.3 °F 10.6 °F 11.8 °F 70% 30.16 in 10.0 mi West 8.1 mph - N/A   Clear
1:55 AM 21.9 °F 14.5 °F 12.2 °F 66% 30.17 in 10.0 mi West 5.8 mph - N/A   Clear
2:15 AM 20.7 °F 11.0 °F 12.0 °F 69% 30.17 in 10.0 mi West 8.1 mph - N/A   Clear
2:35 AM 20.1 °F 11.3 °F 12.0 °F 71% 30.17 in 10.0 mi West 6.9 mph - N/A   Clear
2:55 AM 20.3 °F 11.5 °F 12.2 °F 71% 30.17 in 10.0 mi West 6.9 mph - N/A   Clear
3:55 AM 19.4 °F 14.3 °F 12.0 °F 73% 30.16 in 10.0 mi West 3.5 mph - N/A   Clear
4:15 AM 19.4 °F 14.3 °F 12.0 °F 73% 30.16 in 10.0 mi West 3.5 mph - N/A   Scattered Clouds
4:35 AM 19.8 °F 9.9 °F 12.0 °F 72% 30.16 in 10.0 mi West 8.1 mph - N/A   Clear
4:55 AM 20.5 °F 11.7 °F 12.2 °F 70% 30.16 in 10.0 mi West 6.9 mph - N/A   Clear
5:15 AM 21.4 °F 11.9 °F 12.9 °F 70% 30.16 in 10.0 mi West 8.1 mph - N/A   Clear
5:35 AM 21.9 °F 12.5 °F 12.9 °F 68% 30.17 in 10.0 mi West 8.1 mph - N/A   Clear
5:55 AM 21.2 °F 11.7 °F 12.9 °F 70% 30.17 in 10.0 mi West 8.1 mph - N/A   Clear
6:15 AM 20.3 °F 10.6 °F 12.7 °F 73% 30.17 in 10.0 mi WNW 8.1 mph - N/A   Clear
6:55 AM 21.9 °F 11.7 °F 13.1 °F 69% 30.18 in 10.0 mi WNW 9.2 mph - N/A   Clear
7:15 AM 21.9 °F 12.5 °F 13.1 °F 69% 30.19 in 10.0 mi WNW 8.1 mph - N/A   Clear
7:35 AM 21.7 °F 13.2 °F 13.1 °F 69% 30.19 in 10.0 mi WNW 6.9 mph - N/A   Clear
7:55 AM 23.7 °F 14.0 °F 13.8 °F 66% 30.20 in 10.0 mi West 9.2 mph - N/A   Clear
8:15 AM 25.3 °F 15.3 °F 14.0 °F 62% 30.21 in 10.0 mi WNW 10.4 mph - N/A   Clear
8:35 AM 27.0 °F 16.7 °F 14.5 °F 60% 30.21 in 10.0 mi West 11.5 mph - N/A   Clear
8:55 AM 28.6 °F 18.7 °F 14.2 °F 55% 30.22 in 10.0 mi WNW 11.5 mph 19.6 mph N/A   Clear
9:15 AM 29.8 °F 18.9 °F 14.7 °F 53% 30.24 in 10.0 mi WNW 15.0 mph 19.6 mph N/A   Clear
9:35 AM 31.1 °F 20.1 °F 14.7 °F 51% 30.24 in 10.0 mi WNW 16.1 mph 21.9 mph N/A   Clear
9:55 AM 32.9 °F 22.4 °F 14.7 °F 47% 30.25 in 10.0 mi NW 16.1 mph 21.9 mph N/A   Clear
10:15 AM 33.4 °F 22.0 °F 14.2 °F 45% 30.25 in 10.0 mi NW 19.6 mph 28.8 mph N/A   Clear
10:35 AM 34.0 °F 24.2 °F 14.0 °F 44% 30.26 in 10.0 mi NW 15.0 mph 29.9 mph N/A   Clear
10:55 AM 34.3 °F 22.9 °F 13.3 °F 42% 30.26 in 10.0 mi WNW 20.7 mph 26.5 mph N/A   Clear
11:15 AM 35.6 °F 24.2 °F 12.7 °F 39% 30.26 in 10.0 mi NW 21.9 mph 27.6 mph N/A   Clear
11:35 AM 36.7 °F 26.0 °F 12.7 °F 37% 30.27 in 10.0 mi WNW 20.7 mph 28.8 mph N/A   Clear
11:55 AM 37.9 °F 27.6 °F 12.6 °F 35% 30.26 in 10.0 mi NW 20.7 mph 26.5 mph N/A   Clear
12:15 PM 38.5 °F 28.1 °F 11.8 °F 34% 30.26 in 10.0 mi NW 21.9 mph 31.1 mph N/A   Clear
12:35 PM 39.2 °F 29.8 °F 12.2 °F 33% 30.25 in 10.0 mi NW 18.4 mph 29.9 mph N/A   Clear
12:55 PM 40.1 °F 31.6 °F 12.0 °F 32% 30.25 in 10.0 mi NW 16.1 mph 26.5 mph N/A   Clear
1:15 PM 39.9 °F 30.8 °F 11.7 °F 31% 30.25 in 10.0 mi NW 18.4 mph 24.2 mph N/A   Clear
1:35 PM 41.2 °F 33.0 °F 11.5 °F 30% 30.25 in 10.0 mi WNW 16.1 mph 26.5 mph N/A   Clear
2:15 PM 42.3 °F 34.4 °F 11.3 °F 28% 30.25 in 10.0 mi NW 16.1 mph 25.3 mph N/A   Clear
2:35 PM 42.8 °F 34.5 °F 11.8 °F 28% 30.25 in 10.0 mi NW 18.4 mph 24.2 mph N/A   Clear
2:55 PM 41.9 °F 33.7 °F 11.5 °F 29% 30.25 in 10.0 mi NW 17.3 mph 25.3 mph N/A   Clear
3:15 PM 42.6 °F 35.9 °F 12.0 °F 29% 30.25 in 10.0 mi NW 12.7 mph 21.9 mph N/A   Clear
3:35 PM 42.3 °F 35.1 °F 12.0 °F 29% 30.26 in 10.0 mi NW 13.8 mph 21.9 mph N/A   Clear
3:55 PM 42.1 °F 35.7 °F 12.2 °F 30% 30.26 in 10.0 mi NW 11.5 mph 17.3 mph N/A   Clear
4:15 PM 41.2 °F 34.5 °F 11.7 °F 30% 30.27 in 10.0 mi NW 11.5 mph - N/A   Clear
4:35 PM 40.3 °F 34.4 °F 12.2 °F 32% 30.27 in 10.0 mi NW 9.2 mph - N/A   Clear
4:55 PM 38.1 °F 32.9 °F 12.9 °F 36% 30.27 in 10.0 mi NNW 6.9 mph - N/A   Clear
5:15 PM 34.7 °F 30.6 °F 13.1 °F 41% 30.28 in 10.0 mi NW 4.6 mph - N/A   Clear
5:35 PM 34.2 °F - 13.6 °F 43% 30.28 in 10.0 mi Calm Calm - N/A   Clear
5:55 PM 30.9 °F - 15.3 °F 52% 30.28 in 10.0 mi Calm Calm - N/A   Clear
6:15 PM 30.6 °F - 15.4 °F 54% 30.28 in 10.0 mi Calm Calm - N/A   Clear
6:35 PM 26.2 °F - 15.4 °F 64% 30.29 in 10.0 mi Calm Calm - N/A   Clear
6:55 PM 28.4 °F - 15.3 °F 58% 30.30 in 10.0 mi Calm Calm - N/A   Clear
7:15 PM 27.0 °F - 15.6 °F 62% 30.30 in 10.0 mi Calm Calm - N/A   Clear
7:35 PM 23.9 °F - 16.2 °F 72% 30.30 in 10.0 mi Calm Calm - N/A   Clear
7:55 PM 25.3 °F - 16.0 °F 68% 30.30 in 10.0 mi Calm Calm - N/A   Clear
8:15 PM 23.4 °F - 15.6 °F 72% 30.30 in 10.0 mi Calm Calm - N/A   Clear
8:35 PM 24.6 °F - 15.4 °F 68% 30.30 in 10.0 mi Calm Calm - N/A   Clear
8:55 PM 20.7 °F - 15.3 °F 80% 30.31 in 10.0 mi Calm Calm - N/A   Clear
9:15 PM 20.8 °F - 14.7 °F 77% 30.32 in 10.0 mi Calm Calm - N/A   Clear
9:35 PM 21.9 °F - 14.9 °F 74% 30.32 in 10.0 mi Calm Calm - N/A   Clear
9:55 PM 19.2 °F - 14.0 °F 80% 30.32 in 10.0 mi Calm Calm - N/A   Clear
10:15 PM 20.1 °F - 14.7 °F 80% 30.32 in 10.0 mi Calm Calm - N/A   Clear
10:35 PM 20.5 °F - 14.7 °F 78% 30.31 in 10.0 mi Calm Calm - N/A   Clear
10:55 PM 18.0 °F - 12.7 °F 80% 30.31 in 10.0 mi Calm Calm - N/A   Clear
11:15 PM 18.0 °F - 12.6 °F 79% 30.32 in 10.0 mi Calm Calm - N/A   Clear
11:35 PM 18.3 °F - 13.6 °F 82% 30.32 in 10.0 mi Calm Calm - N/A   Clear
11:55 PM 18.5 °F - 14.2 °F 83% 30.32 in 10.0 mi Calm Calm - N/A   Clear